Weather History for Ahmedabad, India

Change the Weather History Date:

Thursday, December 6, 2012

  Actual Average Record
Temperature  
Mean Temperature 76 °F -  
Max Temperature 90 °F 80 °F 91 °F (2003)
Min Temperature 62 °F 55 °F 50 °F (1998)
Cooling Degree Days 11    
Growing Degree Days 26 (Base 50)    
Moisture  
Dew Point 52 °F    
Average Humidity 48    
Maximum Humidity 73    
Minimum Humidity 18    
Precipitation  
Precipitation 0.00 in 0.01 in - ()
Sea Level Pressure  
Sea Level Pressure 29.93 in    
Wind  
Wind Speed 4 mph ()    
Max Wind Speed 9 mph    
Max Gust Speed -    
Visibility 2.4 miles    
Events      
Averages and records for this station are not official NWS values.
T = Trace of Precipitation, MM = Missing Value Source: Averaged Metar Reports

Daily Weather History Graph

Daily Weather History Graph

Search for Another Location

Airport:

Trip Planner

Search our weather history database for the weather conditions in past years. The results will help you decide how hot, cold, wet, or windy it might be!

Date:

Astronomy

Dec. 06, 2012 Rise Set
Actual Time 7:07 AM IST 5:53 PM IST
Civil Twilight 6:42 AM IST 6:18 PM IST
Nautical Twilight 6:14 AM IST 6:46 PM IST
Astronomical Twilight 5:47 AM IST 7:13 PM IST
Moon No Moon Rise 12:21 PM IST (12/6)
Length of Visible Light 11h 35m
Length of Day
10h 46m
Waning Gibbous, 54% of the Moon is Illuminated
Dec 6
Waning Gibbous
Dec 6
Last Quarter
Dec 13
New
Dec 20
First Quarter
Dec 28
Full

Hourly Weather History & Observations

Time (IST) Temp. Heat Index Dew Point Humidity Pressure Visibility Wind Dir Wind Speed Gust Speed Precip Events Conditions
12:40 AM 68.0 °F - 51.8 °F 56% 29.92 in 2.5 mi NE 4.6 mph - N/A   Smoke
1:10 AM 66.2 °F - 51.8 °F 60% 29.92 in 2.5 mi NE 4.6 mph - N/A   Smoke
1:40 AM 64.4 °F - 51.8 °F 64% 29.92 in 2.5 mi ENE 4.6 mph - N/A   Smoke
2:10 AM 62.6 °F - 51.8 °F 68% 29.92 in 2.5 mi NNE 4.6 mph - N/A   Smoke
2:30 AM 67 °F - 56 °F 60% 29.95 in 1 mi NNW 4.6 mph - -   Haze
2:40 AM 62.6 °F - 51.8 °F 68% 29.92 in 2.5 mi NE 4.6 mph - N/A   Smoke
3:10 AM 62.6 °F - 51.8 °F 68% 29.92 in 2.5 mi NE 4.6 mph - N/A   Smoke
3:40 AM 64.4 °F - 50.0 °F 59% 29.92 in 2.5 mi NE 3.5 mph - N/A   Smoke
4:10 AM 64.4 °F - 50.0 °F 59% 29.92 in 2.5 mi NE 3.5 mph - N/A   Haze
4:40 AM 64.4 °F - 50.0 °F 59% 29.92 in 2.5 mi NNE 3.5 mph - N/A   Haze
5:10 AM 62.6 °F - 50.0 °F 63% 29.92 in 2.5 mi NE 3.5 mph - N/A   Haze
5:30 AM 65 °F - 56 °F 65% 29.94 in 1 mi North 4.6 mph - -   Haze
5:40 AM 60.8 °F - 50.0 °F 68% 29.92 in 2.5 mi NE 3.5 mph - N/A   Haze
6:10 AM 62.6 °F - 50.0 °F 63% 29.92 in 2.2 mi NNE 3.5 mph - N/A   Haze
6:40 AM 60.8 °F - 50.0 °F 68% 29.95 in 2.2 mi NNE 3.5 mph - N/A   Haze
7:10 AM 60.8 °F - 50.0 °F 68% 29.95 in 1.6 mi Variable 2.3 mph - N/A   Haze
7:40 AM 62.6 °F - 50.0 °F 63% 29.98 in 1.6 mi NE 4.6 mph - N/A   Haze
8:10 AM 64.4 °F - 50.0 °F 59% 29.98 in 1.6 mi ENE 6.9 mph - N/A   Haze
8:30 AM 68 °F - 54 °F 50% 30.01 in 2 mi ENE 9.2 mph - -   Clear
8:40 AM 68.0 °F - 50.0 °F 52% 29.98 in 1.6 mi ENE 6.9 mph - N/A   Haze
9:40 AM 75.2 °F - 50.0 °F 41% 30.01 in 1.9 mi ENE 6.9 mph - N/A   Haze
10:40 AM 78.8 °F - 50.0 °F 36% 30.01 in 2.5 mi ENE 8.1 mph - N/A   Smoke
11:10 AM 82.4 °F - 51.8 °F 35% 29.98 in 2.5 mi ENE 6.9 mph - N/A   Smoke
11:30 AM 83 °F - 55 °F 28% 30.00 in 2 mi ENE 9.2 mph - -   Clear
12:10 PM 86.0 °F - 51.8 °F 31% 29.95 in 3.1 mi NE 6.9 mph - N/A   Smoke
12:40 PM 87.8 °F - 51.8 °F 29% 29.92 in 3.1 mi ENE 8.1 mph - N/A   Smoke
1:10 PM 87.8 °F - 50.0 °F 27% 29.92 in 3.1 mi ENE 9.2 mph - N/A   Smoke
1:40 PM 89.6 °F - 51.8 °F 27% 29.89 in 3.1 mi NE 6.9 mph - N/A   Smoke
2:10 PM 89.6 °F - 50.0 °F 26% 29.89 in 3.1 mi ENE 5.8 mph - N/A   Smoke
2:30 PM 88 °F - 51 °F 18% 29.92 in 2 mi North 4.6 mph - -   Clear
2:40 PM 91.4 °F - 50.0 °F 24% 29.86 in 3.1 mi NE 6.9 mph - N/A   Smoke
3:10 PM 91.4 °F - 50.0 °F 24% 29.86 in 3.1 mi ENE 5.8 mph - N/A   Smoke
3:40 PM 91.4 °F - 50.0 °F 24% 29.86 in 3.1 mi ENE 5.8 mph - N/A   Smoke
4:10 PM 91.4 °F - 51.8 °F 26% 29.86 in 3.1 mi ENE 5.8 mph - N/A   Smoke
4:40 PM 91.4 °F - 48.2 °F 23% 29.86 in 3.1 mi NE 4.6 mph - N/A   Smoke
5:10 PM 89.6 °F - 51.8 °F 27% 29.86 in 3.1 mi NE 4.6 mph - N/A   Smoke
5:30 PM 87 °F - 57 °F 26% 29.90 in 2 mi North 3.5 mph - -   Clear
5:40 PM 87.8 °F - 51.8 °F 29% 29.86 in 3.1 mi NNE 4.6 mph - N/A   Smoke
6:10 PM 82.4 °F 81.4 °F 53.6 °F 37% 29.89 in 2.5 mi NNE 4.6 mph - N/A   Smoke
6:40 PM 78.8 °F - 51.8 °F 39% 29.89 in 2.5 mi NNE 3.5 mph - N/A   Smoke
7:10 PM 77.0 °F - 53.6 °F 44% 29.92 in 2.5 mi Calm Calm - N/A   Smoke
7:40 PM 75.2 °F - 55.4 °F 50% 29.92 in 2.5 mi NE 4.6 mph - N/A   Smoke
8:10 PM 73.4 °F - 53.6 °F 50% 29.95 in 2.5 mi NE 4.6 mph - N/A   Smoke
8:30 PM 73 °F - 58 °F 50% 29.96 in 2 mi North 2.3 mph - -   Haze
8:40 PM 73.4 °F - 59.0 °F 61% 29.95 in 2.5 mi NNE 5.8 mph - N/A   Smoke
9:10 PM 71.6 °F - 55.4 °F 57% 29.95 in 2.5 mi NE 5.8 mph - N/A   Smoke
9:40 PM 71.6 °F - 53.6 °F 53% 29.95 in 2.5 mi Calm Calm - N/A   Smoke
10:10 PM 69.8 °F - 57.2 °F 64% 29.95 in 2.5 mi NNE 4.6 mph - N/A   Haze
10:40 PM 69.8 °F - 53.6 °F 56% 29.95 in 2.2 mi NE 5.8 mph - N/A   Haze
11:10 PM 69.8 °F - 53.6 °F 56% 29.95 in 2.2 mi North 4.6 mph - N/A   Haze
11:30 PM 67 °F - 59 °F 68% 29.96 in 2 mi North 2.3 mph - -   Haze
11:40 PM 68.0 °F - 59.0 °F 73% 29.95 in 2.2 mi North 4.6 mph - N/A   Haze